This is the latest recevied weather packets stored in our database for station/object WK7G. If no packets are shown the sender has not sent any weather packets the latest 10 day(s).
| Time | Temp. | Humidity | Pressure | Rain* | Wind** | Luminosity | Snow |
|---|---|---|---|---|---|---|---|
| 1777967401 | 7.22° C | 66% | 1004.5 hPa | 0 mm | - | 0 W/m² | - |
| 1777967098 | 7.22° C | 64% | 1004.4 hPa | 0 mm | - | 0 W/m² | - |
| 1777966795 | 7.22° C | 64% | 1004.4 hPa | 0 mm | - | 0 W/m² | - |
| 1777966493 | 7.22° C | 64% | 1004.2 hPa | 0 mm | - | 0 W/m² | - |
| 1777966190 | 7.22° C | 64% | 1004.5 hPa | 0 mm | - | 0 W/m² | - |
| 1777965886 | 7.22° C | 67% | 1004.5 hPa | 0 mm | - | 0 W/m² | - |
| 1777965582 | 6.67° C | 66% | 1004.4 hPa | 0 mm | - | 0 W/m² | - |
| 1777965278 | 7.22° C | 67% | 1004.5 hPa | 0 mm | - | 0 W/m² | - |
| 1777964976 | 7.22° C | 67% | 1004.3 hPa | 0 mm | - | 0 W/m² | - |
| 1777964673 | 7.22° C | 67% | 1004.4 hPa | 0 mm | - | 0 W/m² | - |
| 1777964369 | 7.78° C | 65% | 1003.9 hPa | 0 mm | - | 0 W/m² | - |
| 1777964065 | 7.78° C | 64% | 1004.2 hPa | 0 mm | - | 0 W/m² | - |
| 1777963762 | 7.78° C | 65% | 1004.3 hPa | 0 mm | - | 0 W/m² | - |
| 1777963459 | 7.78° C | 63% | 1004.2 hPa | 0 mm | - | 0 W/m² | - |
| 1777963157 | 7.78° C | 63% | 1004.2 hPa | 0 mm | - | 0 W/m² | - |
| 1777962853 | 7.78° C | 63% | 1004 hPa | 0 mm | - | 0 W/m² | - |
| 1777962550 | 7.78° C | 62% | 1004 hPa | 0 mm | - | 0 W/m² | - |
| 1777962247 | 7.78° C | 62% | 1003.8 hPa | 0 mm | - | 0 W/m² | - |
| 1777961944 | 8.33° C | 62% | 1003.8 hPa | 0 mm | - | 0 W/m² | - |
| 1777961642 | 8.33° C | 60% | 1003.7 hPa | 0 mm | - | 0 W/m² | - |
| 1777961339 | 8.33° C | 61% | 1003.9 hPa | 0 mm | - | 0 W/m² | - |
| 1777961036 | 8.33° C | 61% | 1003.6 hPa | 0 mm | - | 0 W/m² | - |
| 1777960732 | 8.89° C | 62% | 1003.6 hPa | 0 mm | - | 0 W/m² | - |
| 1777960428 | 8.89° C | 58% | 1003.8 hPa | 0 mm | - | 0 W/m² | - |
| 1777960126 | 8.33° C | 63% | 1003.8 hPa | 0 mm | - | 0 W/m² | - |
* Rain latest hour (hover to see other rain measurements)
** Current wind speed in m/s (hover to see current wind gust speed)